This is the latest recevied weather packets stored in our database for station/object N4ZIQ. If no packets are shown the sender has not sent any weather packets the latest 10 day(s).
| Time | Temp. | Humidity | Pressure | Rain* | Wind** | Luminosity | Snow |
|---|---|---|---|---|---|---|---|
| 1777584347 | 30.56° C | 47% | 1009.5 hPa | 0 mm | - | 153 W/m² | - |
| 1777584049 | 30.56° C | 48% | 1009.6 hPa | 0 mm | - | 144 W/m² | - |
| 1777583752 | 31.11° C | 47% | 1009.5 hPa | 0 mm | - | 211 W/m² | - |
| 1777583447 | 31.67° C | 48% | 1009.6 hPa | 0 mm | - | 441 W/m² | - |
| 1777583148 | 31.67° C | 48% | 1009.4 hPa | 0 mm | - | 213 W/m² | - |
| 1777582870 | 31.67° C | 48% | 1009.6 hPa | 0 mm | - | 381 W/m² | - |
| 1777582547 | 30.56° C | 49% | 1009.6 hPa | 0 mm | - | 531 W/m² | - |
| 1777582247 | 31.11° C | 47% | 1009.6 hPa | 0 mm | - | 114 W/m² | - |
| 1777581959 | 31.11° C | 47% | 1009.6 hPa | 0 mm | - | 606 W/m² | - |
| 1777581647 | 30.56° C | 49% | 1009.7 hPa | 0 mm | - | 185 W/m² | - |
| 1777581347 | 31.11° C | 48% | 1009.8 hPa | 0 mm | - | 130 W/m² | - |
| 1777581058 | 31.11° C | 47% | 1009.8 hPa | 0 mm | - | 536 W/m² | - |
| 1777580746 | 31.11° C | 48% | 1009.8 hPa | 0 mm | - | 234 W/m² | - |
| 1777580446 | 31.11° C | 49% | 1009.7 hPa | 0 mm | - | 619 W/m² | - |
| 1777580156 | 30.56° C | 49% | 1009.9 hPa | 0 mm | - | 671 W/m² | - |
| 1777579849 | 31.11° C | 48% | 1009.9 hPa | 0 mm | - | 624 W/m² | - |
| 1777579547 | 31.11° C | 50% | 1009.9 hPa | 0 mm | - | 559 W/m² | - |
| 1777579258 | 31.11° C | 51% | 1009.8 hPa | 0 mm | - | 631 W/m² | - |
| 1777578947 | 30° C | 53% | 1009.9 hPa | 0 mm | - | 645 W/m² | - |
| 1777578647 | 30° C | 52% | 1010 hPa | 0 mm | - | 188 W/m² | - |
| 1777578356 | 30.56° C | 54% | 1010.1 hPa | 0 mm | - | 134 W/m² | - |
| 1777578048 | 31.11° C | 53% | 1010.2 hPa | 0 mm | - | 499 W/m² | - |
| 1777577746 | 30.56° C | 54% | 1010.3 hPa | 0 mm | - | 134 W/m² | - |
| 1777577454 | 31.11° C | 53% | 1010.3 hPa | 0 mm | - | 135 W/m² | - |
| 1777577147 | 31.11° C | 52% | 1010.4 hPa | 0 mm | - | 132 W/m² | - |
* Rain latest hour (hover to see other rain measurements)
** Current wind speed in m/s (hover to see current wind gust speed)